�����͌���@�\�w���ɂ��Y���u�C�̈ړ��ʁi�\�w���j,,,,,,,,,,
�@,Time,Time int.,,Lat.,,Long.,,Direction,Speed,
Date(yyyy/mm/dd),(hh:mm),(hour),(min),(deg),(min),(deg),(min),(deg),(m/s),(knots)
2006/2/22,9:00,0,,36,47.7,137,4.14,,,
2006/2/22,9:05,0,5,36,47.736,137,4.194,49.36,0.35,0.69
2006/2/22,9:10,0,5,36,47.796,137,4.188,355.56,0.38,0.74
2006/2/22,9:15,0,5,36,47.814,137,4.23,60.26,0.24,0.47
2006/2/22,9:20,0,5,36,47.85,137,4.248,21.24,0.25,0.48
2006/2/22,9:25,0,5,36,47.856,137,4.272,69.22,0.13,0.25
2006/2/22,9:30,0,5,36,47.868,137,4.296,55.4,0.14,0.28
2006/2/22,9:35,0,5,36,47.886,137,4.314,29.19,0.15,0.29
2006/2/22,9:40,0,5,36,47.904,137,4.326,18.11,0.14,0.26
2006/2/22,9:45,0,5,36,47.91,137,4.356,73.44,0.13,0.25
2006/2/22,9:50,0,5,36,47.916,137,4.386,73.44,0.13,0.25
2006/2/22,9:55,0,5,36,47.928,137,4.404,47.64,0.11,0.21
2006/2/22,10:00,0,5,36,47.94,137,4.428,56.3,0.13,0.26
2006/2/22,10:05,0,5,36,47.952,137,4.446,47.63,0.11,0.21
2006/2/22,10:10,0,5,36,47.94,137,4.482,113.55,0.19,0.36
2006/2/22,10:15,0,5,36,47.964,137,4.518,52.01,0.23,0.44
2006/2/22,10:20,0,5,36,47.976,137,4.542,61.15,0.14,0.26
2006/2/22,10:25,0,5,36,47.988,137,4.578,67.54,0.19,0.38
2006/2/22,10:30,0,5,36,47.976,137,4.614,112.57,0.19,0.38
2006/2/22,10:35,0,5,36,47.982,137,4.638,72.78,0.12,0.24
2006/2/22,10:40,0,5,36,47.982,137,4.662,90.05,0.12,0.23
2006/2/22,10:45,0,5,36,47.994,137,4.698,68.44,0.2,0.39
2006/2/22,10:50,0,5,36,47.97,137,4.716,146.66,0.18,0.34
2006/2/22,10:55,0,5,36,47.988,137,4.746,54.8,0.19,0.37
2006/2/22,11:00,0,5,36,47.988,137,4.776,90.05,0.16,0.31
2006/2/22,11:05,0,5,36,47.994,137,4.788,61.43,0.08,0.15
2006/2/22,11:10,0,5,36,47.976,137,4.8,148.63,0.13,0.25
2006/2/22,11:15,0,5,36,47.982,137,4.818,69.28,0.1,0.2


�A,Time,Time int.,,Lat.,,Long.,,Direction,Speed,
Date(yyyy/mm/dd),(hh:mm),(hour),(min),(deg),(min),(deg),(min),(deg),(m/s),(knots)
2006/2/22,11:35,0,,36,47.628,137,4.194,,,
2006/2/22,11:40,0,5,36,47.622,137,4.242,98.89,0.24,0.47
2006/2/22,11:45,0,5,36,47.616,137,4.26,112.57,0.1,0.19
2006/2/22,11:50,0,5,36,47.604,137,4.308,107.32,0.25,0.48
2006/2/22,11:55,0,5,36,47.604,137,4.332,90.06,0.12,0.23
2006/2/22,12:00,0,5,36,47.58,137,4.374,125.45,0.26,0.5
2006/2/22,12:05,0,5,36,47.58,137,4.41,101.18,0.15,0.3
2006/2/22,12:10,0,5,36,47.574,137,4.434,126.53,0.11,0.22
2006/2/22,12:15,0,5,36,47.574,137,4.47,101.18,0.15,0.3
2006/2/22,12:20,0,5,36,47.568,137,4.494,126.53,0.11,0.22
2006/2/22,12:25,0,5,36,47.568,137,4.53,101.18,0.15,0.3
2006/2/22,12:30,0,5,36,47.562,137,4.56,119.1,0.14,0.27
2006/2/22,12:35,0,5,36,47.568,137,4.608,87.96,0.21,0.41
2006/2/22,12:40,0,5,36,47.568,137,4.626,116.13,0.07,0.13
2006/2/22,12:45,0,5,36,47.568,137,4.668,99.36,0.18,0.35
2006/2/22,12:50,0,5,36,47.598,137,4.716,53.35,0.26,0.51
2006/2/22,12:55,0,5,36,47.592,137,4.746,119.09,0.14,0.27
2006/2/22,13:00,0,5,36,47.592,137,4.806,96.3,0.27,0.52
2006/2/22,13:05,0,5,36,47.604,137,4.842,73.4,0.16,0.3
2006/2/22,13:10,0,5,36,47.622,137,4.872,55.71,0.14,0.28
2006/2/22,13:15,0,5,36,47.634,137,4.902,69.56,0.13,0.25
2006/2/22,13:20,0,5,36,47.64,137,4.938,87.12,0.15,0.29
2006/2/22,13:25,0,5,36,47.67,137,4.998,59.93,0.31,0.6
2006/2/22,13:30,0,5,36,47.694,137,5.064,68.34,0.32,0.62
2006/2/22,13:35,0,5,36,47.712,137,5.094,55.7,0.14,0.28
2006/2/22,13:40,0,5,36,47.736,137,5.136,56.51,0.21,0.42
2006/2/22,13:45,0,5,36,47.742,137,5.154,82.78,0.06,0.12
2006/2/22,13:50,0,5,36,47.778,137,5.208,51.12,0.31,0.6
2006/2/22,13:55,0,5,36,47.772,137,5.226,137.94,0.09,0.17
2006/2/22,14:00,0,5,36,47.814,137,5.286,49.48,0.35,0.69
2006/2/22,14:05,0,5,36,47.82,137,5.322,87.11,0.15,0.29
2006/2/22,14:10,0,5,36,47.838,137,5.37,68.68,0.22,0.44
2006/2/22,14:15,0,5,36,47.856,137,5.412,65.52,0.2,0.38


�B,Time,Time int.,,Lat.,,Long.,,Direction,Speed,
Date(yyyy/mm/dd),(hh:mm),(hour),(min),(deg),(min),(deg),(min),(deg),(m/s),(knots)
2006/2/22,9:05,0,,36,47.598,137,4.2,,,
2006/2/22,9:15,0,5,36,47.634,137,4.302,65.58,0.56,1.08
2006/2/22,9:20,0,5,36,47.592,137,4.326,154.66,0.28,0.54
2006/2/22,9:25,0,5,36,47.61,137,4.356,51.33,0.19,0.37
2006/2/22,9:30,0,5,36,47.592,137,4.374,139.06,0.14,0.26
2006/2/22,9:35,0,5,36,47.592,137,4.416,84.79,0.19,0.37
2006/2/22,9:40,0,5,36,47.586,137,4.44,100.9,0.1,0.2
2006/2/22,9:45,0,5,36,47.574,137,4.476,115.78,0.17,0.33
2006/2/22,9:50,0,5,36,47.568,137,4.5,111.52,0.1,0.2
2006/2/22,9:55,0,5,36,47.55,137,4.536,123.16,0.2,0.39
2006/2/22,10:00,0,5,36,47.526,137,4.572,131.06,0.23,0.44
2006/2/22,10:05,0,5,36,47.544,137,4.602,51.75,0.18,0.35
2006/2/22,10:10,0,5,36,47.514,137,4.656,125.54,0.32,0.62
2006/2/22,10:20,0,10,36,47.52,137,4.704,85.15,0.12,0.23
2006/2/22,10:25,0,5,36,47.52,137,4.722,90.05,0.09,0.17
2006/2/22,10:30,0,5,36,47.526,137,4.746,72.79,0.12,0.24
2006/2/22,10:45,0,15,36,47.544,137,4.77,52.4,0.06,0.12
2006/2/22,10:50,0,5,36,47.526,137,4.848,105.74,0.41,0.8
2006/2/22,10:55,0,5,36,47.532,137,4.902,82.42,0.28,0.54
2006/2/22,11:00,0,5,36,47.538,137,4.914,61.43,0.08,0.15
2006/2/22,11:05,0,5,36,47.526,137,4.956,108.91,0.23,0.44
2006/2/22,11:10,0,5,36,47.514,137,4.986,115.27,0.17,0.34
2006/2/22,11:15,0,5,36,47.532,137,5.016,53.33,0.19,0.36
2006/2/22,11:20,0,5,36,47.508,137,5.052,129.7,0.23,0.45


�C,Time,Time int.,,Lat.,,Long.,,Direction,Speed,
Date(yyyy/mm/dd),(hh:mm),(hour),(min),(deg),(min),(deg),(min),(deg),(m/s),(knots)
2006/2/22,11:35,0,,36,47.658,137,4.176,,,
2006/2/22,11:40,0,5,36,47.67,137,4.236,76.09,0.31,0.6
2006/2/22,11:45,0,5,36,47.694,137,4.272,50.4,0.23,0.45
2006/2/22,11:50,0,5,36,47.676,137,4.296,133.06,0.16,0.32
2006/2/22,11:55,0,5,36,47.64,137,4.338,136.88,0.3,0.59
2006/2/22,12:00,0,5,36,47.64,137,4.362,90.06,0.12,0.23
2006/2/22,12:05,0,5,36,47.622,137,4.374,167.9,0.14,0.28
2006/2/22,12:10,0,5,36,47.628,137,4.41,87.12,0.15,0.29
2006/2/22,12:15,0,5,36,47.616,137,4.422,163.76,0.11,0.21
2006/2/22,12:20,0,5,36,47.604,137,4.452,130.91,0.16,0.31
2006/2/22,12:25,0,5,36,47.586,137,4.464,167.9,0.14,0.28
2006/2/22,12:30,0,5,36,47.568,137,4.488,147.46,0.17,0.32
2006/2/22,12:35,0,5,36,47.556,137,4.518,130.91,0.16,0.31
2006/2/22,12:40,0,5,36,47.55,137,4.518,203.88,0.07,0.14
2006/2/22,12:45,0,5,36,47.556,137,4.584,88.58,0.3,0.58
2006/2/22,12:50,0,5,36,47.556,137,4.638,97.07,0.24,0.47
2006/2/22,12:55,0,5,36,47.544,137,4.632,209.8,0.12,0.23
2006/2/22,13:00,0,5,36,47.562,137,4.638,0.38,0.08,0.16
2006/2/22,13:05,0,5,36,47.58,137,4.65,20.36,0.09,0.17
2006/2/22,13:10,0,5,36,47.58,137,4.668,116.13,0.07,0.13
2006/2/22,13:15,0,5,36,47.574,137,4.686,137.94,0.09,0.17
2006/2/22,13:20,0,5,36,47.598,137,4.746,66.19,0.29,0.57
2006/2/22,13:25,0,5,36,47.604,137,4.8,88.21,0.24,0.46
2006/2/22,13:30,0,5,36,47.61,137,4.806,3.51,0.01,0.01
2006/2/22,13:35,0,5,36,47.634,137,4.866,66.19,0.29,0.57
2006/2/22,13:40,0,5,36,47.652,137,4.872,0.38,0.08,0.16
2006/2/22,13:45,0,5,36,47.652,137,4.926,97.07,0.24,0.47
2006/2/22,13:50,0,5,36,47.682,137,4.968,49.04,0.24,0.46
2006/2/22,13:55,0,5,36,47.7,137,4.986,36.35,0.1,0.2
2006/2/22,14:05,0,5,36,47.73,137,4.98,339.27,0.17,0.32
2006/2/22,14:10,0,5,36,47.742,137,5.07,83.94,0.42,0.82
2006/2/22,14:15,0,5,36,47.754,137,5.106,73.39,0.16,0.3
2006/2/22,14:20,0,5,36,47.766,137,5.16,79.44,0.24,0.47
